SB KEPS @ AMSAT $ORB13080.O Orbital Elements 13080.OSCAR
HR AMSAT ORBITAL ELEMENTS FOR OSCAR SATELLITES FROM WA5QGD FORT WORTH,TX March 21, 2013 BID: ORB13080.O TO ALL RADIO AMATEURS BT
Satellite: AO-07 Catalog number: 07530 Epoch time: 13079.99757900 Element set: 635 Inclination: 101.4261 deg RA of node: 072.7240 deg Eccentricity: 0.0012385 Arg of perigee: 100.5582 deg Mean anomaly: 293.3316 deg Mean motion: 12.53595344 rev/day Decay rate: -3.4e-07 rev/day^2 Epoch rev: 75473 Checksum: 292
Satellite: FO-29 Catalog number: 24278 Epoch time: 13080.74753194 Element set: 77 Inclination: 098.5648 deg RA of node: 150.9680 deg Eccentricity: 0.0350858 Arg of perigee: 030.8714 deg Mean anomaly: 111.9905 deg Mean motion: 13.52997237 rev/day Decay rate: -2.8e-07 rev/day^2 Epoch rev: 81948 Checksum: 347
Satellite: SO-33 Catalog number: 25509 Epoch time: 13080.66354574 Element set: 457 Inclination: 031.4316 deg RA of node: 203.1385 deg Eccentricity: 0.0351372 Arg of perigee: 111.7338 deg Mean anomaly: 020.0944 deg Mean motion: 14.28980157 rev/day Decay rate: 4.48e-06 rev/day^2 Epoch rev: 75236 Checksum: 293
Satellite: RS-22 Catalog number: 27939 Epoch time: 13080.51771691 Element set: 258 Inclination: 097.7995 deg RA of node: 272.9432 deg Eccentricity: 0.0014353 Arg of perigee: 103.8500 deg Mean anomaly: 256.4289 deg Mean motion: 14.64358242 rev/day Decay rate: 6.68e-06 rev/day^2 Epoch rev: 50646 Checksum: 332
Satellite: VO-52 Catalog number: 28650 Epoch time: 13080.86665733 Element set: 374 Inclination: 097.5742 deg RA of node: 103.9421 deg Eccentricity: 0.0025882 Arg of perigee: 204.7559 deg Mean anomaly: 257.8675 deg Mean motion: 14.83647146 rev/day Decay rate: 1.094e-05 rev/day^2 Epoch rev: 42613 Checksum: 332
Satellite: HO-68 Catalog number: 36122 Epoch time: 13080.64183544 Element set: 388 Inclination: 100.3171 deg RA of node: 139.8715 deg Eccentricity: 0.0007406 Arg of perigee: 191.4155 deg Mean anomaly: 168.6790 deg Mean motion: 13.16302811 rev/day Decay rate: -4.4e-07 rev/day^2 Epoch rev: 15689 Checksum: 296
/EX SB KEPS @ AMSAT $ORB13080.D Orbital Elements 13080.MICROS
HR AMSAT ORBITAL ELEMENTS FOR THE MICROSATS FROM WA5QGD FORT WORTH,TX March 21, 2013 BID: ORB13080.D TO ALL RADIO AMATEURS BT
Satellite: UO-11 Catalog number: 14781 Epoch time: 13080.19915351 Element set: 130 Inclination: 097.9124 deg RA of node: 142.7329 deg Eccentricity: 0.0008644 Arg of perigee: 205.4570 deg Mean anomaly: 154.6218 deg Mean motion: 14.80789819 rev/day Decay rate: 6.05e-06 rev/day^2 Epoch rev: 56091 Checksum: 302
Satellite: AO-16 Catalog number: 20439 Epoch time: 13080.82588759 Element set: 703 Inclination: 098.4648 deg RA of node: 022.9134 deg Eccentricity: 0.0011875 Arg of perigee: 061.6190 deg Mean anomaly: 016.8891 deg Mean motion: 14.32149127 rev/day Decay rate: 1.13e-06 rev/day^2 Epoch rev: 20973 Checksum: 307
Satellite: LO-19 Catalog number: 20442 Epoch time: 13079.82065737 Element set: 635 Inclination: 098.4331 deg RA of node: 024.0029 deg Eccentricity: 0.0012731 Arg of perigee: 055.5349 deg Mean anomaly: 338.3014 deg Mean motion: 14.32361720 rev/day Decay rate: 1.28e-06 rev/day^2 Epoch rev: 20978 Checksum: 282
Satellite: AO-27 Catalog number: 22825 Epoch time: 13080.77958425 Element set: 340 Inclination: 098.6113 deg RA of node: 025.7651 deg Eccentricity: 0.0008643 Arg of perigee: 177.3142 deg Mean anomaly: 214.7574 deg Mean motion: 14.29542364 rev/day Decay rate: 1.00e-06 rev/day^2 Epoch rev: 1614 Checksum: 287
Satellite: IO-26 Catalog number: 22826 Epoch time: 13080.03256199 Element set: 96 Inclination: 098.6049 deg RA of node: 025.3321 deg Eccentricity: 0.0009233 Arg of perigee: 173.3071 deg Mean anomaly: 248.3403 deg Mean motion: 14.29823956 rev/day Decay rate: 9.8e-07 rev/day^2 Epoch rev: 1616 Checksum: 296
Satellite: GO-32 Catalog number: 25397 Epoch time: 13080.81578385 Element set: 27 Inclination: 098.4055 deg RA of node: 052.4202 deg Eccentricity: 0.0001720 Arg of perigee: 149.1088 deg Mean anomaly: 300.4832 deg Mean motion: 14.23328101 rev/day Decay rate: 2.4e-07 rev/day^2 Epoch rev: 76351 Checksum: 268
Satellite: NO-44 Catalog number: 26931 Epoch time: 13080.18303850 Element set: 285 Inclination: 067.0507 deg RA of node: 126.3688 deg Eccentricity: 0.0006272 Arg of perigee: 286.6894 deg Mean anomaly: 110.0775 deg Mean motion: 14.29898139 rev/day Decay rate: 8.3e-07 rev/day^2 Epoch rev: 59884 Checksum: 334
Satellite: SO-50 Catalog number: 27607 Epoch time: 13080.74772238 Element set: 21 Inclination: 064.5568 deg RA of node: 170.3083 deg Eccentricity: 0.0056208 Arg of perigee: 189.4013 deg Mean anomaly: 314.4038 deg Mean motion: 14.72820700 rev/day Decay rate: 6.34e-06 rev/day^2 Epoch rev: 55083 Checksum: 283
Satellite: CO-55 Catalog number: 27844 Epoch time: 13080.63301959 Element set: 606 Inclination: 098.7026 deg RA of node: 090.9761 deg Eccentricity: 0.0010738 Arg of perigee: 138.5036 deg Mean anomaly: 342.4004 deg Mean motion: 14.21176041 rev/day Decay rate: 2.38e-06 rev/day^2 Epoch rev: 50429 Checksum: 291
Satellite: CO-57 Catalog number: 27848 Epoch time: 13080.03633580 Element set: 552 Inclination: 098.7113 deg RA of node: 089.8548 deg Eccentricity: 0.0010543 Arg of perigee: 145.3396 deg Mean anomaly: 248.5655 deg Mean motion: 14.20906759 rev/day Decay rate: 1.88e-06 rev/day^2 Epoch rev: 50414 Checksum: 327
Satellite: AO-51 Catalog number: 28375 Epoch time: 13080.84018309 Element set: 513 Inclination: 098.1922 deg RA of node: 039.8529 deg Eccentricity: 0.0082172 Arg of perigee: 280.3851 deg Mean anomaly: 164.3977 deg Mean motion: 14.41084888 rev/day Decay rate: 1.60e-06 rev/day^2 Epoch rev: 45875 Checksum: 328
Satellite: CP3 Catalog number: 31129 Epoch time: 13079.93905609 Element set: 418 Inclination: 097.8944 deg RA of node: 077.5874 deg Eccentricity: 0.0099544 Arg of perigee: 342.8829 deg Mean anomaly: 072.3260 deg Mean motion: 14.53522413 rev/day Decay rate: 1.038e-05 rev/day^2 Epoch rev: 31417 Checksum: 325
Satellite: CO-65 Catalog number: 32785 Epoch time: 13080.72389984 Element set: 583 Inclination: 097.7610 deg RA of node: 140.7224 deg Eccentricity: 0.0013625 Arg of perigee: 229.1365 deg Mean anomaly: 277.8422 deg Mean motion: 14.83658155 rev/day Decay rate: 1.109e-05 rev/day^2 Epoch rev: 26490 Checksum: 328
Satellite: PRISM Catalog number: 33493 Epoch time: 13080.86592572 Element set: 639 Inclination: 098.2058 deg RA of node: 235.0062 deg Eccentricity: 0.0019271 Arg of perigee: 115.6453 deg Mean anomaly: 244.6772 deg Mean motion: 14.85468710 rev/day Decay rate: 4.065e-05 rev/day^2 Epoch rev: 22495 Checksum: 312
Satellite: SOHLA-1 Catalog number: 33496 Epoch time: 13080.14236168 Element set: 998 Inclination: 098.1241 deg RA of node: 196.4500 deg Eccentricity: 0.0005769 Arg of perigee: 232.0329 deg Mean anomaly: 226.1541 deg Mean motion: 14.70215033 rev/day Decay rate: 4.62e-06 rev/day^2 Epoch rev: 22293 Checksum: 280
Satellite: SO-67 Catalog number: 35870 Epoch time: 13080.87290685 Element set: 896 Inclination: 097.2016 deg RA of node: 112.7571 deg Eccentricity: 0.0000312 Arg of perigee: 316.9771 deg Mean anomaly: 168.4036 deg Mean motion: 15.26222139 rev/day Decay rate: 6.098e-05 rev/day^2 Epoch rev: 19493 Checksum: 324
Satellite: TISAT-1 Catalog number: 36799 Epoch time: 13080.75101762 Element set: 910 Inclination: 098.0365 deg RA of node: 164.9365 deg Eccentricity: 0.0014422 Arg of perigee: 357.5799 deg Mean anomaly: 002.5328 deg Mean motion: 14.82968489 rev/day Decay rate: 2.385e-05 rev/day^2 Epoch rev: 14561 Checksum: 332
Satellite: STUDSAT Catalog number: 36801 Epoch time: 13078.87111317 Element set: 602 Inclination: 098.0463 deg RA of node: 165.4275 deg Eccentricity: 0.0011080 Arg of perigee: 344.9572 deg Mean anomaly: 080.3053 deg Mean motion: 14.87237217 rev/day Decay rate: 5.405e-05 rev/day^2 Epoch rev: 14544 Checksum: 279
Satellite: FO-69 Catalog number: 37227 Epoch time: 13058.47095845 Element set: 0079 Inclination: 071.9702 deg RA of node: 108.5053 deg Eccentricity: 0.0016475 Arg of perigee: 214.8087 deg Mean anomaly: 145.2122 deg Mean motion: 14.77380366 rev/day Decay rate: 5.09e-06 rev/day^2 Epoch rev: 01270 Checksum: 308
Satellite: FO-70 Catalog number: 37380 Epoch time: 13057.30123492 Element set: 0076 Inclination: 071.9749 deg RA of node: 111.9690 deg Eccentricity: 0.0018455 Arg of perigee: 208.9506 deg Mean anomaly: 151.0634 deg Mean motion: 14.77121324 rev/day Decay rate: -4.6e-07 rev/day^2 Epoch rev: 01260 Checksum: 281
Satellite: ALMASAT-1 Catalog number: 38078 Epoch time: 13080.78524296 Element set: 105 Inclination: 069.4848 deg RA of node: 043.1290 deg Eccentricity: 0.0716636 Arg of perigee: 258.4127 deg Mean anomaly: 093.5768 deg Mean motion: 14.20353587 rev/day Decay rate: 1.7529e-04 rev/day^2 Epoch rev: 5681 Checksum: 332
Satellite: XATCOBEO Catalog number: 38082 Epoch time: 13080.87207591 Element set: 10 Inclination: 069.4840 deg RA of node: 026.5944 deg Eccentricity: 0.0627449 Arg of perigee: 249.3352 deg Mean anomaly: 103.9519 deg Mean motion: 14.43455838 rev/day Decay rate: 4.6192e-04 rev/day^2 Epoch rev: 5727 Checksum: 317
/EX SB KEPS @ AMSAT $ORB13080.W Orbital Elements 13080.WEATHER
HR AMSAT ORBITAL ELEMENTS FOR WEATHER SATELLITES FROM WA5QGD FORT WORTH,TX March 21, 2013 BID: ORB13080.W TO ALL RADIO AMATEURS BT
Satellite: NOAA-10 Catalog number: 16969 Epoch time: 13080.52776021 Element set: 285 Inclination: 098.5537 deg RA of node: 110.2426 deg Eccentricity: 0.0013308 Arg of perigee: 139.8122 deg Mean anomaly: 009.3426 deg Mean motion: 14.27621630 rev/day Decay rate: 1.09e-06 rev/day^2 Epoch rev: 37943 Checksum: 285
Satellite: NOAA-11 Catalog number: 19531 Epoch time: 13080.27705076 Element set: 287 Inclination: 098.7127 deg RA of node: 165.3739 deg Eccentricity: 0.0012098 Arg of perigee: 149.3898 deg Mean anomaly: 279.6016 deg Mean motion: 14.15005711 rev/day Decay rate: 2.6e-07 rev/day^2 Epoch rev: 26369 Checksum: 315
